Terminal Aerodrome Forecast
Issued by NWS Cleveland, OH

Home | Current Version | Previous Version | Graphics & Text | Print | Product List | Glossary On
Versions: 1 2 3 4 5 6 7 8 9 10 11 12 13 14 15 16 17 18 19 20 21 22 23 24 25 26 27 28 29 30 31 32 33 34 35 36
000
FTUS41 KCLE 221600 AAC
TAFCLE
TAF AMD
KCLE 221624Z 2216/2318 34012G20KT 3SM HZ SCT003 OVC010
      TEMPO 2216/2218 1 1/2SM -RA BR OVC003
     FM221800 32020G28KT P6SM BKN012
     FM230100 32012KT P6SM VCSH BKN030=

USA.gov is the U.S. government's official web portal to all federal, state and local government web resources and services.